Regional Weather Roundup
Issued by NWS

Home | Current Version | Previous Version | Graphics & Text | Print | Product List | Glossary On
Versions: 1 2 3 4 5 6 7 8 9 10 11 12 13 14 15 16 17 18 19 20 21 22 23 24 25 26 27 28 29 30 31 32 33 34 35 36 37 38 39 40 41 42 43 44 45 46 47 48 49 50
806
ASUS43 KLOT 290603
RWRIL

ILLINOIS REGIONAL WEATHER ROUNDUP
NATIONAL WEATHER SERVICE CHICAGO/ROMEOVILLE IL
100 AM CDT FRI APR 29 2016

NOTE: "FAIR" INDICATES FEW OR NO CLOUDS BELOW 12,000 FEET WITH NO
SIGNIFICANT WEATHER AND/OR OBSTRUCTIONS TO VISIBILITY.

* THESE STATIONS ARE NOT UNDER NWS QUALITY CONTROL. THEY ALSO MAY NOT
  REPORT WEATHER SUCH AS PRECIPITATION OR FOG.

ILZ001-002-007-009-015-016-024-290700-
NORTHWEST ILLINOIS

CITY           SKY/WX    TMP DP  RH WIND       PRES   REMARKS
MOLINE         CLOUDY    51  48  89 NE7       30.02R FOG
6HR MIN TEMP:  51; 6HR MAX TEMP:  55; 6HR PCP: TRACE;

STERLING*      CLOUDY    45  43  93 NE5       30.05R
$$

ILZ003-004-008-010-011-017-018-290700-
NORTH CENTRAL ILLINOIS

CITY           SKY/WX    TMP DP  RH WIND       PRES   REMARKS
ROCKFORD       CLOUDY    42  39  89 NE6       30.05R
6HR MIN TEMP:  42; 6HR MAX TEMP:  45; 6HR PCP: TRACE;

FREEPORT*      CLOUDY    40  38  93 NE6       30.06R
ROCHELLE*      CLOUDY    42  40  93 NE6       30.04R FOG
DE KALB*       CLOUDY    42  41  95 N5        30.03R FOG
$$

ILZ005-006-012>014-019>023-290700-
NORTHEAST ILLINOIS

CITY           SKY/WX    TMP DP  RH WIND       PRES   REMARKS
CHICAGO-OHARE  CLOUDY    42  42 100 N7        30.01R FOG
6HR MIN TEMP:  42; 6HR MAX TEMP:  44; 6HR PCP:  0.01;

CHICAGO-MIDWAY CLOUDY    45  41  86 N7        30.01R FOG
6HR MIN TEMP:  45; 6HR MAX TEMP:  48; 6HR PCP: TRACE;

AURORA         CLOUDY    44  41  89 N6        30.03R FOG
6HR MIN TEMP:  44; 6HR MAX TEMP:  48; 6HR PCP: TRACE;

LANSING*       CLOUDY    46  42  89 N3        30.01R FOG
WAUKEGAN       LGT RAIN  41  41 100 NE5       30.02S
6HR MIN TEMP:  40; 6HR MAX TEMP:  41; 6HR PCP:  0.03;

DUPAGE AIRPORT CLOUDY    43  39  86 N8        30.01S FOG
6HR MIN TEMP:  43; 6HR MAX TEMP:  45; 6HR PCP: TRACE;

WHEELING       CLOUDY    42  41  96 N7        30.02F FOG
6HR MIN TEMP:  42; 6HR MAX TEMP:  42; 6HR PCP: TRACE;

MORRIS*        CLOUDY    46  42  88 CALM      30.01S FOG
NORTHERLY ISL    N/A     43  41  93 MISG        N/A
NORTHERLY ISL    N/A     43  41  93 MISG        N/A
$$

LMZ740>746-290700-
SOUTHERN LAKE MICHIGAN

STATION/POSITION SKY/WX   TEMP    WIND        PRES    VSBY  WAVE
                          AIR SEA DIR/SP/G                  HT/PER
                          (F)     (DEG/KT/KT) (MB)    (MI)  (FT/S)
SOUTHERN BUOY              41 40   80/  8/ 10 1016.4          2/ 4
HARRISON CRIB              43     350/  9/  9   N/A
BURNHAM HARBOR             44     350/  4/  9   N/A
CALUMET HARBOR             44     330/  7/ 11 1015.3F
BURNS HARBOR               44     330/  4/  6 1016.3S
MICHIGAN CITY              45     220/  9/  9   N/A
ST. JOSEPH                 48 47  120/ 10/ 10   N/A           2/ 4
$$

ILZ025>027-034>036-040-047-049-050-058-095>099-290700-
WEST-CENTRAL ILLINOIS

CITY           SKY/WX    TMP DP  RH WIND       PRES   REMARKS
QUINCY         CLOUDY    53  48  83 NW6       30.03R
MACOMB*        CLEAR     49  47  93 W8        30.04R
PITTSFIELD*    CLEAR     53  48  82 W3        30.04R
$$

ILZ028>032-037-038-041>044-048-051>054-059>061-290700-
CENTRAL ILLINOIS

CITY           SKY/WX    TMP DP  RH WIND       PRES   REMARKS
BLOOMINGTON    CLOUDY    55  49  80 NW7       30.02R
DECATUR        CLEAR     54  47  77 NW5       30.00S
PEORIA         MOCLDY    54  48  80 CALM      30.01S
6HR MIN TEMP:  54; 6HR MAX TEMP:  58;

LINCOLN*       CLOUDY    56  50  82 CALM      30.01S
SPRINGFIELD    CLEAR     55  50  83 NW6       30.01S
6HR MIN TEMP:  54; 6HR MAX TEMP:  62;

TAYLORVILLE    NOT AVBL
$$

ILZ033-039-045-046-055>057-062-063-290700-
EAST-CENTRAL ILLINOIS

CITY           SKY/WX    TMP DP  RH WIND       PRES   REMARKS
CHAMPAIGN      CLEAR     50  47  89 N7        30.00S
$$

ILZ079-100>102-290700-
SOUTHWEST ILLINOIS

CITY           SKY/WX    TMP DP  RH WIND       PRES   REMARKS
ALTON          CLEAR     51  49  93 CALM      30.03R
BELLEVILLE     CLEAR     54  51  92 W2        30.02S
CAHOKIA*       CLEAR     55  49  80 CALM      30.02S
SPARTA*        CLEAR     54  50  87 CALM      30.04S
$$

ILZ064>066-069>071-074>076-080>082-084>086-088>090-092>094-290700-
SOUTH-CENTRAL ILLINOIS

CITY           SKY/WX    TMP DP  RH WIND       PRES   REMARKS
CARBONDALE     CLEAR     57  50  77 N5        30.02R
6HR MIN TEMP:  57; 6HR MAX TEMP:  74;

EFFINGHAM*     CLEAR     53  52  98 CALM      30.03S
MT. VERNON     CLEAR     54  46  76 CALM      30.04R
SALEM*         CLEAR     55  50  84 CALM      30.03S
$$

ILZ067-068-072-073-078-083-087-091-290700-
SOUTHEAST ILLINOIS

CITY           SKY/WX    TMP DP  RH WIND       PRES   REMARKS
LAWRENCEVILLE  CLEAR     56  50  80 N5        30.02R
FLORA*         CLEAR     56  51  82 CALM      30.02S
HARRISBURG*    CLEAR     59  53  80 N7        30.03R
ROBINSON*      CLEAR     53  49  86 NW3       30.03R
$$

ABBREVIATIONS USED IN REMARKS
   TC - TEMPERATURE IN CELSIUS
  WCI - WIND CHILL INDEX
   HX - HEAT INDEX
  VSB - VISIBILITY
$$





USA.gov is the U.S. government's official web portal to all federal, state and local government web resources and services.